When you browse on this site, cookies collect data to enhance your experience and personalize the content and advertising you see.
Visit our Privacy Policy to learn more. By continuing to use the site, you agree to this use of cookies and data.
  • In Hungary
  • List of Countries
  • For 7 days
  • Water Temperature
  • Satellite Maps
  • Weather Map
  • News
  • Weather Widgets
  • user-avatar
    Login

    Hourly Weather Jelesnia

    Today, 23 April, Tuesday

    Time Temperature Precipitation Wind Pressure Humidity
    00:00 +5°C° 0 mm 2 mps 716 mmHg 91%
    01:00 +4°C° 0 mm 2 mps 716 mmHg 92%
    02:00 +4°C° 0 mm 2 mps 716 mmHg 92%
    03:00 +4°C° 0 mm 2 mps 716 mmHg 92%
    04:00 +4°C° 0 mm 2 mps 716 mmHg 92%
    05:00 +5°C° 0 mm 2 mps 716 mmHg 86%
    06:00 +7°C° 0 mm 2 mps 716 mmHg 79%
    07:00 +8°C° 0 mm 2 mps 716 mmHg 72%
    08:00 +11°C° 0 mm 3 mps 716 mmHg 65%
    09:00 +13°C° 0 mm 4 mps 717 mmHg 57%
    10:00 +15°C° 0 mm 5 mps 717 mmHg 50%
    11:00 +16°C° 0 mm 5 mps 717 mmHg 49%
    12:00 +16°C° 0 mm 5 mps 716 mmHg 48%
    13:00 +16°C° 0 mm 6 mps 716 mmHg 47%
    14:00 +16°C° 0 mm 6 mps 716 mmHg 49%
    15:00 +15°C° 0 mm 5 mps 716 mmHg 50%
    16:00 +15°C° 0 mm 5 mps 716 mmHg 52%
    17:00 +13°C° 0 mm 4 mps 715 mmHg 60%
    18:00 +11°C° 0 mm 3 mps 715 mmHg 68%
    19:00 +10°C° 0 mm 2 mps 715 mmHg 76%
    20:00 +9°C° 0 mm 2 mps 715 mmHg 80%
    21:00 +8°C° 0 mm 2 mps 715 mmHg 83%
    22:00 +9°C° 0 mm 1 mps 715 mmHg 86%
    23:00 +7°C° 0.1 mm 2 mps 715 mmHg 88%

    Tomorrow, 24 April, Wednesday

    Time Temperature Precipitation Wind Pressure Humidity
    00:00 +7°C° 0.1 mm 2 mps 714 mmHg 89%
    01:00 +7°C° 0.1 mm 2 mps 714 mmHg 91%
    02:00 +7°C° 0 mm 2 mps 714 mmHg 91%
    03:00 +7°C° 0 mm 2 mps 714 mmHg 92%
    04:00 +7°C° 0 mm 2 mps 714 mmHg 93%
    05:00 +8°C° 0 mm 2 mps 714 mmHg 88%
    06:00 +9°C° 0 mm 2 mps 715 mmHg 82%
    07:00 +11°C° 0 mm 3 mps 715 mmHg 77%
    08:00 +13°C° 0 mm 3 mps 715 mmHg 70%
    09:00 +15°C° 0 mm 4 mps 716 mmHg 62%
    10:00 +18°C° 0 mm 4 mps 716 mmHg 55%
    11:00 +18°C° 0 mm 4 mps 716 mmHg 53%
    12:00 +19°C° 0 mm 5 mps 717 mmHg 52%
    13:00 +20°C° 0 mm 5 mps 717 mmHg 50%
    14:00 +19°C° 0 mm 5 mps 717 mmHg 53%
    15:00 +17°C° 0 mm 5 mps 717 mmHg 56%
    16:00 +17°C° 0 mm 5 mps 717 mmHg 59%
    17:00 +15°C° 0 mm 4 mps 716 mmHg 66%
    18:00 +13°C° 0 mm 3 mps 716 mmHg 73%
    19:00 +13°C° 0 mm 2 mps 716 mmHg 81%
    20:00 +12°C° 0 mm 2 mps 716 mmHg 84%
    21:00 +12°C° 0 mm 2 mps 716 mmHg 87%
    22:00 +10°C° 0 mm 2 mps 716 mmHg 90%
    23:00 +10°C° 0 mm 2 mps 716 mmHg 91%

    Day after tomorrow, 25 April, Thursday

    Time Temperature Precipitation Wind Pressure Humidity
    00:00 +10°C° 0 mm 2 mps 716 mmHg 92%
    01:00 +10°C° 0 mm 2 mps 716 mmHg 93%
    02:00 +10°C° 0 mm 2 mps 715 mmHg 94%
    03:00 +10°C° 0 mm 2 mps 715 mmHg 94%
    04:00 +10°C° 0 mm 2 mps 715 mmHg 95%
    05:00 +12°C° 0 mm 2 mps 716 mmHg 89%
    06:00 +12°C° 0 mm 3 mps 716 mmHg 82%
    07:00 +14°C° 0 mm 3 mps 716 mmHg 76%
    08:00 +16°C° 0 mm 3 mps 717 mmHg 70%
    09:00 +18°C° 0 mm 3 mps 717 mmHg 64%
    10:00 +19°C° 0 mm 3 mps 717 mmHg 58%
    11:00 +20°C° 0 mm 4 mps 717 mmHg 56%
    12:00 +20°C° 0 mm 4 mps 717 mmHg 54%
    13:00 +21°C° 0 mm 4 mps 717 mmHg 52%
    14:00 +21°C° 0 mm 4 mps 717 mmHg 54%
    15:00 +21°C° 0 mm 4 mps 717 mmHg 55%
    16:00 +21°C° 0 mm 4 mps 717 mmHg 57%
    17:00 +19°C° 0 mm 3 mps 716 mmHg 65%
    18:00 +18°C° 0 mm 2 mps 716 mmHg 73%
    19:00 +16°C° 0 mm 2 mps 716 mmHg 81%
    20:00 +15°C° 0 mm 2 mps 716 mmHg 84%
    21:00 +14°C° 0 mm 2 mps 716 mmHg 87%
    22:00 +14°C° 0 mm 2 mps 716 mmHg 91%
    23:00 +13°C° 0 mm 2 mps 715 mmHg 91%

    26 April, Friday

    Time Temperature Precipitation Wind Pressure Humidity
    00:00 +13°C° 0 mm 2 mps 715 mmHg 91%
    01:00 +13°C° 0 mm 2 mps 715 mmHg 91%
    02:00 +13°C° 0 mm 2 mps 715 mmHg 90%
    03:00 +13°C° 0 mm 2 mps 715 mmHg 89%
    04:00 +12°C° 0 mm 3 mps 715 mmHg 88%
    05:00 +14°C° 0 mm 3 mps 715 mmHg 81%
    06:00 +17°C° 0 mm 3 mps 715 mmHg 73%
    07:00 +18°C° 0 mm 4 mps 715 mmHg 65%
    08:00 +20°C° 0 mm 4 mps 715 mmHg 58%
    09:00 +22°C° 0 mm 5 mps 715 mmHg 50%
    10:00 +24°C° 0 mm 6 mps 715 mmHg 43%
    11:00 +24°C° 0 mm 6 mps 715 mmHg 41%
    12:00 +26°C° 0 mm 6 mps 715 mmHg 40%
    13:00 +26°C° 0 mm 6 mps 715 mmHg 38%
    14:00 +26°C° 0 mm 5 mps 714 mmHg 40%
    15:00 +25°C° 0 mm 5 mps 714 mmHg 42%
    16:00 +25°C° 0 mm 4 mps 714 mmHg 44%
    17:00 +22°C° 0 mm 3 mps 714 mmHg 55%
    18:00 +19°C° 0 mm 3 mps 713 mmHg 66%
    19:00 +17°C° 0 mm 2 mps 713 mmHg 76%
    20:00 +16°C° 0.1 mm 2 mps 713 mmHg 81%
    21:00 +15°C° 0.1 mm 2 mps 713 mmHg 86%
    22:00 +15°C° 0.1 mm 2 mps 713 mmHg 90%
    23:00 +14°C° 0 mm 2 mps 713 mmHg 91%

    27 April, Saturday

    Time Temperature Precipitation Wind Pressure Humidity
    00:00 +14°C° 0 mm 2 mps 713 mmHg 91%
    01:00 +14°C° 0 mm 2 mps 713 mmHg 92%
    02:00 +13°C° 0.6 mm 1 mps 713 mmHg 94%
    03:00 +13°C° 0.6 mm 1 mps 713 mmHg 95%
    04:00 +13°C° 0.6 mm 1 mps 713 mmHg 97%
    05:00 +13°C° 1.8 mm 1 mps 713 mmHg 97%
    06:00 +13°C° 1.8 mm 1 mps 714 mmHg 97%
    07:00 +13°C° 1.8 mm 1 mps 714 mmHg 96%
    08:00 +12°C° 4.4 mm 1 mps 714 mmHg 97%
    09:00 +12°C° 4.4 mm 2 mps 714 mmHg 97%
    10:00 +12°C° 4.4 mm 2 mps 714 mmHg 97%
    11:00 +12°C° 0.9 mm 2 mps 714 mmHg 96%
    12:00 +12°C° 0.9 mm 2 mps 714 mmHg 94%
    13:00 +12°C° 0.9 mm 2 mps 714 mmHg 93%
    14:00 +10°C° 0.4 mm 2 mps 714 mmHg 93%
    15:00 +10°C° 0.4 mm 3 mps 714 mmHg 94%
    16:00 +9°C° 0.4 mm 3 mps 714 mmHg 95%
    17:00 +9°C° 0.3 mm 3 mps 714 mmHg 94%
    18:00 +9°C° 0.3 mm 2 mps 714 mmHg 94%
    19:00 +8°C° 0.3 mm 2 mps 714 mmHg 94%
    20:00 +8°C° 2.1 mm 2 mps 715 mmHg 95%
    21:00 +8°C° 2.1 mm 2 mps 715 mmHg 96%
    22:00 +9°C° 2.1 mm 1 mps 715 mmHg 96%
    23:00 +9°C° 1.6 mm 1 mps 715 mmHg 97%

    28 April, Sunday

    Time Temperature Precipitation Wind Pressure Humidity
    00:00 +9°C° 1.6 mm 1 mps 716 mmHg 97%
    01:00 +8°C° 1.6 mm 2 mps 716 mmHg 97%
    02:00 +8°C° 1.3 mm 2 mps 716 mmHg 97%
    03:00 +9°C° 1.3 mm 1 mps 716 mmHg 97%
    04:00 +9°C° 1.3 mm 1 mps 717 mmHg 98%
    05:00 +8°C° 2.4 mm 2 mps 717 mmHg 97%
    06:00 +7°C° 2.4 mm 3 mps 718 mmHg 97%
    07:00 +6°C° 2.4 mm 4 mps 718 mmHg 97%
    08:00 +6°C° 1.2 mm 4 mps 719 mmHg 95%
    09:00 +5°C° 1.2 mm 3 mps 719 mmHg 93%
    10:00 +5°C° 1.2 mm 3 mps 720 mmHg 91%
    11:00 +7°C° 0.1 mm 3 mps 720 mmHg 83%
    12:00 +8°C° 0.1 mm 3 mps 720 mmHg 74%
    13:00 +9°C° 0.1 mm 3 mps 720 mmHg 65%
    14:00 +10°C° 0 mm 3 mps 720 mmHg 60%
    15:00 +10°C° 0 mm 3 mps 720 mmHg 55%
    16:00 +10°C° 0 mm 3 mps 720 mmHg 50%
    17:00 +9°C° 0 mm 2 mps 719 mmHg 55%
    18:00 +9°C° 0 mm 1 mps 719 mmHg 60%
    19:00 +8°C° 0 mm 1 mps 719 mmHg 65%
    20:00 +7°C° 0 mm 1 mps 719 mmHg 66%
    21:00 +5°C° 0 mm 0 mps 719 mmHg 67%
    22:00 +5°C° 0 mm 0 mps 719 mmHg 68%
    23:00 +4°C° 0 mm 0 mps 719 mmHg 69%
    Show more